TimeAKDT,TemperatureF,Dew PointF,Humidity,Sea Level PressureIn,VisibilityMPH,Wind Direction,Wind SpeedMPH,Gust SpeedMPH,PrecipitationIn,Events,Conditions,WindDirDegrees,DateUTC
12:53 AM,15.1,14.0,95,30.10,10.0,SSW,4.6,-,0.00,,Overcast,210,2013-10-03 08:53:00
1:30 AM,15.8,14.0,93,30.10,10.0,SSW,4.6,-,0.00,,Overcast,210,2013-10-03 09:30:00
1:53 AM,15.1,14.0,95,30.10,10.0,SSW,5.8,-,0.00,,Overcast,200,2013-10-03 09:53:00
2:27 AM,15.8,14.0,93,30.10,10.0,SSW,4.6,-,0.00,,Overcast,210,2013-10-03 10:27:00
2:39 AM,15.8,15.8,100,30.10,2.5,SSW,5.8,-,0.00,Snow,Light Snow,210,2013-10-03 10:39:00
2:42 AM,15.8,14.0,93,30.10,1.8,SSW,6.9,-,0.00,Snow,Light Snow,210,2013-10-03 10:42:00
2:51 AM,15.8,15.8,100,30.10,2.5,SSW,4.6,-,0.00,Snow,Light Snow,210,2013-10-03 10:51:00
2:53 AM,15.1,15.1,100,30.10,3.0,SSW,5.8,-,0.00,Snow,Light Snow,210,2013-10-03 10:53:00
3:21 AM,15.8,15.8,100,30.09,7.0,Calm,Calm,-,0.00,,Overcast,0,2013-10-03 11:21:00
3:28 AM,15.8,15.8,100,30.09,2.5,South,3.5,-,0.00,Snow,Light Snow,180,2013-10-03 11:28:00
3:41 AM,15.8,14.0,93,30.09,4.0,SSW,4.6,-,0.00,,Overcast,200,2013-10-03 11:41:00
3:53 AM,15.1,14.0,95,30.09,5.0,SSW,3.5,-,0.00,Snow,Light Snow,200,2013-10-03 11:53:00
4:46 AM,15.8,14.0,93,30.08,8.0,SSW,4.6,-,0.00,,Overcast,200,2013-10-03 12:46:00
4:53 AM,15.1,14.0,95,30.08,6.0,South,4.6,-,0.00,,Overcast,190,2013-10-03 12:53:00
5:21 AM,15.8,15.8,100,30.08,1.8,South,4.6,-,0.00,,Overcast,180,2013-10-03 13:21:00
5:53 AM,15.1,15.1,100,30.08,0.5,Calm,Calm,-,0.00,Fog,Light Freezing Fog,0,2013-10-03 13:53:00
6:05 AM,15.8,15.8,100,30.07,0.5,Calm,Calm,-,N/A,Fog,Light Freezing Fog,0,2013-10-03 14:05:00
6:51 AM,12.2,12.2,100,30.08,0.2,SSW,8.1,-,N/A,Fog,Light Freezing Fog,200,2013-10-03 14:51:00
6:53 AM,12.9,12.0,96,30.09,0.2,SSW,8.1,-,0.00,Fog-Rain,Light Freezing Rain,200,2013-10-03 14:53:00
7:03 AM,12.2,12.2,100,30.08,0.2,SW,6.9,-,0.00,Fog-Rain,Light Freezing Rain,220,2013-10-03 15:03:00
7:25 AM,10.4,10.4,100,30.08,0.5,WSW,5.8,-,0.00,Fog-Rain,Light Freezing Rain,240,2013-10-03 15:25:00
7:53 AM,12.9,12.0,96,30.09,1.0,SSW,6.9,-,0.00,Rain,Light Freezing Rain,210,2013-10-03 15:53:00
8:38 AM,14.0,12.2,93,30.07,0.8,SW,3.5,-,0.00,Rain,Light Freezing Rain,230,2013-10-03 16:38:00
8:53 AM,14.0,14.0,100,30.07,0.5,Calm,Calm,-,0.00,Fog-Rain,Light Freezing Rain,0,2013-10-03 16:53:00
9:19 AM,15.8,14.0,93,30.07,0.5,SW,3.5,-,0.00,Fog-Rain,Light Freezing Rain,220,2013-10-03 17:19:00
9:34 AM,15.8,14.0,93,30.07,0.5,SSW,3.5,-,0.00,Fog,Light Freezing Fog,210,2013-10-03 17:34:00
9:53 AM,15.1,15.1,100,30.07,0.5,South,4.6,-,0.00,Fog,Light Freezing Fog,190,2013-10-03 17:53:00
10:53 AM,16.0,15.1,96,30.06,0.5,SW,3.5,-,N/A,Fog,Light Freezing Fog,230,2013-10-03 18:53:00
11:10 AM,15.8,15.8,100,30.06,0.2,SW,4.6,-,0.00,Fog-Rain,Light Freezing Rain,220,2013-10-03 19:10:00
11:53 AM,16.0,16.0,100,30.06,0.2,SW,4.6,-,0.00,Fog-Rain,Light Freezing Rain,220,2013-10-03 19:53:00
2:53 PM,17.1,17.1,100,30.04,0.2,Calm,Calm,-,N/A,Fog,Light Freezing Fog,0,2013-10-03 22:53:00
3:36 PM,17.6,17.6,100,30.03,0.2,Calm,Calm,-,N/A,Fog,Light Freezing Fog,0,2013-10-03 23:36:00
3:51 PM,17.6,17.6,100,30.02,0.5,NW,3.5,-,N/A,Fog,Light Freezing Fog,310,2013-10-03 23:51:00
3:53 PM,18.0,17.1,96,30.03,0.8,Calm,Calm,-,N/A,,Overcast,0,2013-10-03 23:53:00
5:20 PM,17.6,15.8,93,30.01,1.2,WSW,4.6,-,N/A,,Overcast,240,2013-10-04 01:20:00
5:35 PM,17.6,17.6,100,30.01,0.5,WSW,3.5,-,N/A,Fog,Light Freezing Fog,240,2013-10-04 01:35:00
5:53 PM,18.0,17.1,96,30.01,0.5,WSW,3.5,-,N/A,Fog,Light Freezing Fog,250,2013-10-04 01:53:00
8:11 PM,19.4,17.6,93,30.00,1.5,WNW,5.8,-,N/A,,Overcast,290,2013-10-04 04:11:00
8:38 PM,19.4,19.4,100,29.99,1.0,WNW,4.6,-,N/A,,Overcast,290,2013-10-04 04:38:00
8:53 PM,19.9,19.9,100,29.99,1.5,WNW,4.6,-,N/A,,Overcast,290,2013-10-04 04:53:00
9:19 PM,19.4,19.4,100,29.99,2.5,WNW,4.6,-,N/A,,Overcast,290,2013-10-04 05:19:00
9:21 PM,19.4,19.4,100,29.99,3.0,WNW,5.8,-,0.00,Rain,Light Freezing Rain,290,2013-10-04 05:21:00
9:31 PM,19.4,19.4,100,29.99,1.8,WNW,5.8,-,0.00,Rain,Light Freezing Rain,290,2013-10-04 05:31:00
9:53 PM,19.9,19.9,100,29.99,1.2,West,5.8,-,0.00,Rain,Light Freezing Rain,280,2013-10-04 05:53:00
10:01 PM,19.4,19.4,100,29.98,2.0,WNW,4.6,-,0.00,,Overcast,290,2013-10-04 06:01:00
10:16 PM,19.4,19.4,100,29.98,5.0,WNW,4.6,-,0.00,,Overcast,290,2013-10-04 06:16:00
10:45 PM,19.4,19.4,100,29.98,10.0,WNW,4.6,-,0.00,,Overcast,290,2013-10-04 06:45:00
10:53 PM,21.0,19.9,96,29.98,10.0,WNW,4.6,-,0.00,,Overcast,290,2013-10-04 06:53:00
11:53 PM,21.9,19.9,92,29.97,10.0,Calm,Calm,-,N/A,,Overcast,0,2013-10-04 07:53:00